Change the Weather History Date:

Thursday, January 24, 2013

  Actual Average (KCKC) Record (KCKC)
Temperature  
Mean Temperature 2 °F -  
Max Temperature 18 °F 15 °F 32 °F (2015)
Min Temperature -13 °F 0 °F -23 °F (2013)
Degree Days  
Heating Degree Days 63    
Moisture  
Dew Point -8 °F    
Average Humidity 65    
Maximum Humidity 80    
Minimum Humidity 53    
Precipitation  
Precipitation 0.08 in - - ()
Sea Level Pressure  
Sea Level Pressure 30.60 in    
Wind  
Wind Speed 11 mph (WNW)    
Max Wind Speed 21 mph    
Max Gust Speed 40 mph    
Averages and records for this station are not official NWS values.
T = Trace of Precipitation, MM = Missing Value Source: NWS Daily Summary

Daily Weather History Graph

Daily Weather History Graph

Search for Another Location

Airport or City:

Trip Planner

Search our weather history database for the weather conditions in past years. The results will help you decide how hot, cold, wet, or windy it might be!

Date:

Astronomy

Jan. 24, 2013 Rise Set
Actual Time 7:37 AM CST 4:50 PM CST
Civil Twilight 7:03 AM CST 5:24 PM CST
Nautical Twilight 6:25 AM CST 6:01 PM CST
Astronomical Twilight 5:49 AM CST 6:38 PM CST
Moon 2:50 PM CST (1/24) 5:37 AM CST (1/24)
Length of Visible Light 10h 20m
Length of Day
9h 12m
Waxing Gibbous, 94% of the Moon is Illuminated
Jan 24
Waxing Gibbous
Jan 26
Full
Feb 3
Last Quarter
Feb 10
New
Feb 17
First Quarter

Hourly Weather History & Observations

Time (CST) Temp. Windchill Dew Point Humidity Pressure Visibility Wind Dir Wind Speed Gust Speed Precip Events Conditions
12:56 AM -11.0 °F -33.5 °F -24.0 °F 53% 30.68 in - NNW 15.0 mph 29.9 mph N/A   Unknown
1:56 AM -11.9 °F -36.8 °F -24.0 °F 55% 30.69 in - NNW 18.4 mph 40.3 mph N/A   Unknown
2:56 AM -13.0 °F -39.4 °F -25.1 °F 55% 30.71 in - NNW 20.7 mph 28.8 mph N/A   Unknown
3:56 AM -13.0 °F -32.4 °F -25.1 °F 55% 30.73 in - NNW 10.4 mph - N/A   Unknown
4:56 AM -13.0 °F -32.4 °F -26.0 °F 53% 30.74 in - NNW 10.4 mph 17.3 mph N/A   Unknown
5:56 AM -13.0 °F -33.4 °F -26.0 °F 53% 30.75 in - NNW 11.5 mph - N/A   Unknown
6:56 AM -13.0 °F -31.3 °F -26.0 °F 53% 30.76 in - NNW 9.2 mph - N/A   Unknown
7:56 AM -13.0 °F -30.0 °F -25.1 °F 55% 30.77 in - NNW 8.1 mph - N/A   Unknown
8:56 AM -8.0 °F -22.5 °F -18.9 °F 59% 30.74 in - NNW 6.9 mph - N/A   Unknown
9:56 AM -0.9 °F -8.9 °F -11.9 °F 60% 30.74 in - Variable 3.5 mph - N/A   Unknown
10:56 AM 1.9 °F -10.6 °F -6.0 °F 69% 30.71 in - West 6.9 mph - N/A   Unknown
11:56 AM 3.9 °F -6.9 °F -5.1 °F 66% 30.69 in - Variable 5.8 mph - N/A   Unknown
12:56 PM 6.1 °F -4.3 °F -0.0 °F 76% 30.66 in - West 5.8 mph - N/A   Unknown
1:56 PM 6.1 °F -4.3 °F -5.1 °F 60% 30.64 in - WNW 5.8 mph - N/A   Unknown
2:56 PM 6.1 °F -0.9 °F -2.9 °F 67% 30.61 in - North 3.5 mph - N/A   Unknown
3:56 PM 7.0 °F 0.1 °F -0.9 °F 70% 30.58 in - NW 3.5 mph - N/A   Unknown
4:56 PM 8.1 °F 1.4 °F 1.0 °F 73% 30.53 in - WNW 3.5 mph - N/A   Unknown
5:56 PM 9.0 °F 2.4 °F 1.9 °F 73% 30.51 in - WNW 3.5 mph - N/A   Unknown
6:56 PM 10.0 °F - 3.9 °F 76% 30.48 in - Calm Calm - 0.01 in   Unknown
7:56 PM 14.0 °F -2.0 °F 9.0 °F 80% 30.44 in - South 16.1 mph - N/A   Unknown
8:56 PM 14.0 °F -2.0 °F 8.1 °F 77% 30.40 in - SSW 16.1 mph - 0.02 in   Unknown
9:56 PM 15.1 °F -0.1 °F 10.0 °F 80% 30.36 in - SSW 15.0 mph - 0.02 in   Unknown
10:56 PM 17.1 °F 2.5 °F 10.9 °F 77% 30.32 in - SSW 15.0 mph - 0.03 in   Unknown
11:56 PM 18.0 °F 3.6 °F 10.0 °F 71% 30.26 in - SSW 15.0 mph - N/A   Unknown